Regional Weather Roundup
Issued by NWS

Home | Current Version | Previous Version | Graphics & Text | Print | Product List | Glossary On
Versions: 1 2 3 4 5 6 7 8 9 10 11 12 13 14 15 16 17 18 19 20 21 22 23 24 25 26 27 28 29 30 31 32 33 34 35 36 37 38 39 40 41 42 43 44 45 46 47 48 49 50
000
ASUS43 KFSD 102102
RWRSD

WEATHER ROUNDUP FOR SOUTH DAKOTA
NATIONAL WEATHER SERVICE SIOUX FALLS SD
300 PM CST SUN DEC 10 2017

NOTE: "FAIR" INDICATES FEW OR NO CLOUDS BELOW 12,000 FEET WITH NO
SIGNIFICANT WEATHER AND/OR OBSTRUCTIONS TO VISIBILITY.


SDZ001>005-009-010-012>017-102200-
NORTHWEST AND NORTH CENTRAL SOUTH DAKOTA

CITY           SKY/WX    TMP DP  RH WIND       PRES   REMARKS
BUFFALO          N/A     54  18  24 W18       30.05F
FAITH            N/A     56  17  21 W22G30    30.07F
MOBRIDGE       CLOUDY    48  28  46 NW9       30.02F
$$

SDZ012>016-024>037-041>051-057-063-072>074-102200-
SOUTHWEST AND SOUTH CENTRAL SOUTH DAKOTA

CITY           SKY/WX    TMP DP  RH WIND       PRES   REMARKS
RAPID CTY ARPT SUNNY     64   3   9 NW20G25   30.15F
PIERRE         SUNNY     57  20  23 W15       30.05F
CUSTER         SUNNY     51   0  12 NW17G24   30.21F
ELLSWORTH AFB  SUNNY     64   4   9 NW17      30.14S
PHILIP         SUNNY     61  11  14 NW22G35   30.09F
PINE RIDGE     SUNNY     56  17  21 W9        30.20F
SPEARFISH      FAIR      55   9  15 W20G25    30.18S
WINNER         FAIR      61  17  18 NW13      30.08F
$$

SDZ004>011-016>023-039-040-102200-
NORTHEAST SOUTH DAKOTA

CITY           SKY/WX    TMP DP  RH WIND       PRES   REMARKS
ABERDEEN       PTSUNNY   44  26  49 NW8       30.03S
WATERTOWN      SUNNY     38  29  70 NW7       30.01R
BROOKINGS      SUNNY     40  29  64 W14       30.02F
SISSETON         N/A     37  26  64 N5        30.02S
$$

SDZ017-020-022-023-036>040-048>070-102200-
SOUTHEAST SOUTH DAKOTA

CITY           SKY/WX    TMP DP  RH WIND       PRES   REMARKS
SIOUX FALLS    MOSUNNY   43  30  60 W9        30.05F
HURON          SUNNY     46  29  51 NW9       30.05S
CHAMBERLAIN    SUNNY     55  24  30 NW8       30.07F
MITCHELL       SUNNY     48  28  46 W8        30.07F
YANKTON        SUNNY     48  25  40 NW14      30.08F
$$

ABBREVIATIONS USED IN REMARKS
   TC - TEMPERATURE IN CELSIUS
  WCI - WIND CHILL INDEX
   HX - HEAT INDEX
  VSB - VISIBILITY





USA.gov is the U.S. government's official web portal to all federal, state and local government web resources and services.